Date String (YYYY-MM-DD hh:mm:ss) UTC,Instrument flags,Ambient pressure (hPa),Sample flow (lpm),Bypass flow (lpm),Sample temperature (°C),Ambient temperature (°C),ASC tube jacket temperature (°C),LED temperature (°C),Box temperature (°C),Sample RH (%),Span deviation,Mass concentration (μg/m³),Mass concentration (μg/m³),Mass concentration (μg/m³)
DateTimeUTC,F1_M11,P_M11,Q1_M11,Q2_M11,T1_M11,T2_M11,T3_M11,T4_M11,T5_M11,U1_M11,ZSPAN_M11,X2_M11,X0_M11,X1_M11
2023-03-04 03:00:00,,0816.9,5.02,0.00,22.3,20.7,00.0,31.1,24.0,18.1,-002.0,0007.67,0014.19,0007.10
2023-03-04 03:01:00,,0816.6,5.02,0.00,22.3,20.7,00.0,31.1,24.0,18.1,-001.8,0007.67,0015.36,0007.09
2023-03-04 03:02:00,,0816.6,4.96,0.00,22.3,20.7,00.0,31.1,24.0,18.2,-001.7,0007.67,0015.43,0007.09
2023-03-04 03:03:00,,0816.6,4.96,0.00,22.3,20.7,00.0,31.0,24.0,18.2,-001.3,0007.69,0015.63,0007.11
2023-03-04 03:04:00,,0816.8,4.96,0.00,22.2,20.7,00.0,31.0,24.0,18.1,-001.0,0007.71,0015.84,0007.13
2023-03-04 03:05:00,,0816.7,4.99,0.00,22.2,20.6,00.0,31.0,24.0,18.1,-001.0,0007.70,0015.65,0007.13
2023-03-04 03:06:00,,0816.9,5.00,0.00,22.2,20.6,00.0,31.0,24.0,18.3,-001.1,0007.69,0015.25,0007.13
2023-03-04 03:07:00,,0816.8,5.00,0.00,22.2,20.6,00.0,31.0,24.0,18.4,-001.2,0007.68,0014.53,0007.12
2023-03-04 03:08:00,,0816.5,5.01,0.00,22.2,20.5,00.0,31.0,23.9,18.6,-001.1,0007.66,0015.20,0007.10
2023-03-04 03:09:00,,0816.5,5.00,0.00,22.2,20.5,00.0,31.0,23.9,18.6,-001.3,0007.65,0015.43,0007.10
2023-03-04 03:10:00,,0816.5,5.00,0.00,22.2,20.8,00.0,31.0,24.0,18.6,-001.5,0007.63,0014.91,0007.08
2023-03-04 03:11:00,,0816.5,5.01,0.00,22.3,21.7,00.0,31.0,24.2,18.5,-001.7,0007.65,0015.47,0007.07
2023-03-04 03:12:00,,0816.5,5.02,0.00,22.4,22.7,00.0,31.0,24.4,18.5,-001.8,0007.63,0014.33,0007.07
2023-03-04 03:13:00,,0816.5,4.99,0.00,22.5,22.6,00.0,31.0,24.4,18.5,-001.8,0007.62,0014.28,0007.05
2023-03-04 03:14:00,,0816.5,5.02,0.00,22.5,22.2,00.0,31.1,24.4,18.5,-002.0,0007.58,0014.31,0007.03
2023-03-04 03:15:00,,0816.7,5.01,0.00,22.5,21.8,00.0,31.1,24.3,18.5,-002.2,0007.56,0014.21,0007.01
2023-03-04 03:16:00,,0816.8,5.00,0.00,22.4,21.6,00.0,31.1,24.2,18.5,-002.1,0007.56,0014.03,0007.00
2023-03-04 03:17:00,,0816.8,5.00,0.00,22.4,21.3,00.0,31.1,24.2,18.5,-002.1,0007.58,0014.63,0006.99
2023-03-04 03:18:00,,0816.6,5.01,0.00,22.4,21.2,00.0,31.1,24.2,18.4,-002.0,0007.57,0014.58,0006.99
2023-03-04 03:19:00,,0816.7,4.99,0.00,22.4,21.0,00.0,31.1,24.1,18.5,-002.0,0007.56,0013.82,0007.01
2023-03-04 03:20:00,,0816.6,5.00,0.00,22.4,20.9,00.0,31.1,24.1,18.5,-001.7,0007.59,0013.83,0007.02
2023-03-04 03:21:00,,0816.4,5.01,0.00,22.4,20.8,00.0,31.1,24.0,18.5,-001.5,0007.61,0013.83,0007.03
2023-03-04 03:22:00,,0816.4,5.00,0.00,22.3,20.6,00.0,31.1,24.0,18.5,-001.2,0007.62,0013.17,0007.03
2023-03-04 03:23:00,,0816.4,5.00,0.00,22.3,20.5,00.0,31.1,23.9,18.5,-001.2,0007.62,0013.34,0007.02
2023-03-04 03:24:00,,0816.4,5.01,0.00,22.3,20.4,00.0,31.1,23.9,18.4,-001.0,0007.61,0013.26,0007.02
2023-03-04 03:25:00,,0816.4,5.01,0.00,22.2,20.3,00.0,31.1,23.8,18.1,-000.6,0007.55,0012.87,0006.95
2023-03-04 03:26:00,,0816.5,5.00,0.00,22.2,20.3,00.0,31.0,23.8,18.2,-000.5,0007.51,0012.56,0006.91
2023-03-04 03:27:00,,0816.6,5.00,0.00,22.2,21.2,00.0,31.0,24.0,18.3,-000.5,0007.48,0012.50,0006.88
2023-03-04 03:28:00,,0816.7,5.00,0.00,22.3,22.3,00.0,31.0,24.3,18.3,-000.4,0007.45,0011.79,0006.87
2023-03-04 03:29:00,,0816.5,5.01,0.00,22.5,23.0,00.0,31.1,24.5,18.2,-000.4,0007.45,0011.82,0006.86
2023-03-04 03:30:00,,0816.4,4.99,0.00,22.5,22.6,00.0,31.1,24.4,18.2,-000.4,0007.43,0011.83,0006.84
2023-03-04 03:31:00,,0816.4,5.01,0.00,22.5,22.2,00.0,31.1,24.4,18.1,-000.4,0007.40,0011.75,0006.81
2023-03-04 03:32:00,,0816.4,5.00,0.00,22.5,21.9,00.0,31.2,24.3,18.1,-000.7,0007.39,0011.77,0006.78
2023-03-04 03:33:00,,0816.5,5.00,0.00,22.5,21.5,00.0,31.2,24.2,18.1,-001.0,0007.34,0011.58,0006.77
2023-03-04 03:34:00,,0816.6,5.01,0.00,22.5,21.4,00.0,31.2,24.2,18.0,-001.0,0007.31,0011.48,0006.76
2023-03-04 03:35:00,,0817.0,5.00,0.00,22.5,21.2,00.0,31.2,24.2,17.9,-001.3,0007.33,0011.62,0006.76
2023-03-04 03:36:00,,0816.8,5.00,0.00,22.5,21.1,00.0,31.2,24.1,17.6,-001.7,0007.34,0011.61,0006.78
2023-03-04 03:37:00,,0816.9,5.01,0.00,22.4,20.9,00.0,31.2,24.1,17.7,-001.6,0007.35,0011.63,0006.81
2023-03-04 03:38:00,,0816.9,5.01,0.00,22.4,20.6,00.0,31.2,24.0,17.7,-001.7,0007.35,0011.77,0006.82
2023-03-04 03:39:00,,0816.9,5.00,0.00,22.3,20.4,00.0,31.2,23.9,17.8,-001.7,0007.35,0012.41,0006.81
2023-03-04 03:40:00,,0816.9,5.00,0.00,22.3,20.3,00.0,31.1,23.9,17.9,-001.5,0007.35,0012.34,0006.83
2023-03-04 03:41:00,,0816.8,5.01,0.00,22.3,20.3,00.0,31.1,23.8,18.0,-001.3,0007.37,0012.36,0006.85
2023-03-04 03:42:00,,0816.8,5.00,0.00,22.2,20.2,00.0,31.1,23.9,18.1,-001.4,0007.37,0012.17,0006.87
2023-03-04 03:43:00,,0816.9,4.98,0.00,22.2,20.2,00.0,31.1,23.8,18.1,-001.3,0007.40,0012.12,0006.91
2023-03-04 03:44:00,,0816.9,5.00,0.00,22.2,20.2,00.0,31.1,23.8,18.2,-001.2,0007.43,0012.10,0006.92
2023-03-04 03:45:00,,0816.9,4.99,0.00,22.2,20.3,00.0,31.0,23.8,18.2,-001.2,0007.48,0012.04,0006.95
2023-03-04 03:46:00,,0816.9,5.03,0.00,22.2,20.3,00.0,31.0,23.8,18.2,-001.1,0007.54,0012.63,0006.98
2023-03-04 03:47:00,,0817.4,5.03,0.00,22.1,20.3,00.0,31.0,23.8,18.3,-001.2,0007.61,0012.92,0007.04
2023-03-04 03:48:00,,0817.0,5.00,0.00,22.1,20.4,00.0,31.0,23.8,18.2,-001.3,0007.67,0013.04,0007.08
2023-03-04 03:49:00,,0816.8,5.01,0.00,22.1,20.5,00.0,31.0,23.8,18.2,-001.4,0007.73,0013.21,0007.13
2023-03-04 03:50:00,,0816.8,4.99,0.00,22.2,21.4,00.0,31.0,24.0,18.2,-001.5,0007.76,0012.56,0007.15
2023-03-04 03:51:00,,0816.7,5.00,0.00,22.3,22.5,00.0,31.0,24.3,18.1,-001.7,0007.77,0012.54,0007.14
2023-03-04 03:52:00,,0816.9,5.02,0.00,22.4,23.0,00.0,31.0,24.4,17.2,-001.9,0007.69,0012.50,0007.06
2023-03-04 03:53:00,,0816.7,5.01,0.00,22.5,22.6,00.0,31.1,24.4,16.0,-001.8,0007.49,0012.35,0006.87
2023-03-04 03:54:00,,0816.8,4.97,0.00,22.5,22.1,00.0,31.1,24.3,16.3,-001.6,0007.36,0012.35,0006.72
2023-03-04 03:55:00,,0816.6,4.99,0.00,22.5,21.7,00.0,31.1,24.2,15.7,-001.6,0007.18,0012.12,0006.55
2023-03-04 03:56:00,,0816.7,4.99,0.00,22.4,21.4,00.0,31.1,24.2,14.1,-001.6,0006.84,0011.69,0006.26
2023-03-04 03:57:00,,0816.7,5.00,0.00,22.4,21.1,00.0,31.1,24.1,13.8,-001.3,0006.49,0010.83,0005.96
2023-03-04 03:58:00,,0816.9,4.98,0.00,22.4,21.0,00.0,31.1,24.0,16.2,-001.4,0006.38,0010.37,0005.88
2023-03-04 03:59:00,,0816.9,5.00,0.00,22.4,20.8,00.0,31.1,24.0,17.1,-001.5,0006.36,0010.32,0005.87
